User: anonymous   Login
Location: Banios
(43.0451°N, 0.2335°E)
Time: 10:27:40
(UTC+00:00)
Language:

NOSS 0 Rocket - Orbit

View from above orbital plane
View from above orbital plane
View from above satellite
View from above satellite

Ground track
Ground track

The orbit data is extracted from the following two-line orbital elements,

1 05679U 71110B   21112.89193420 -.00000020  00000-0  27979-4 0  9991
2 05679  69.9987 351.5251 0012676 352.3057   7.7846 13.85352639108776
Epoch (UTC): 22 April 2021 21:24:23
Eccentricity: 0.0012676
inclination: 69.9987°
perigee height: 935 km
apogee height: 954 km
right ascension of ascending node: 351.5251°
argument of perigee: 352.3057°
revolutions per day: 13.85352639
mean anomaly at epoch: 7.7846°
orbit number at epoch: 10877

The dashed part of the orbit path shows where the satellite is in the earth's shadow,  

DLR